CW7959 Weather Reports


time (UTC)temp
C
wind
direction
speed
KPH
gust
KPH
rain 1hr
cm
rain 24hr
cm
rain mn
cm
humidity
%
barometer
mb
20260503005905 8 10 1.6 9.7 0.00 0.13 0.00 94 1013.5
20260503005405 8 10 1.6 8.0 0.00 0.13 0.00 94 1013.5
20260503004404 8 9 1.6 8.0 0.00 0.13 0.00 94 1013.6
20260503003903 8 0 3.2 19.3 0.00 0.13 0.00 94 1013.5
20260503003403 8 13 3.2 9.7 0.00 0.13 0.00 95 1013.5
20260503002404 8 12 4.8 14.5 0.00 0.13 0.00 95 1013.5
20260503001904 8 13 0.0 4.8 0.00 0.13 0.00 95 1013.4
20260503000904 8 9 4.8 8.0 0.00 0.13 0.00 95 1013.5
20260503000404 8 8 3.2 12.9 0.00 0.13 0.00 95 1013.5
20260502235905 8 18 3.2 12.9 0.00 0.13 0.00 95 1013.4
20260502234904 8 38 6.4 19.3 0.00 0.13 0.00 95 1013.5
20260502234404 8 19 3.2 16.1 0.00 0.13 0.00 95 1013.5
20260502233905 8 6 3.2 8.0 0.00 0.13 0.00 95 1013.6
20260502233404 8 9 1.6 11.3 0.00 0.13 0.00 95 1013.5
20260502232904 8 13 1.6 14.5 0.00 0.13 0.00 95 1013.5
20260502232404 8 11 1.6 8.0 0.00 0.13 0.00 95 1013.5
20260502231904 8 11 1.6 4.8 0.00 0.13 0.00 95 1013.5
20260502231404 8 11 1.6 9.7 0.03 0.13 0.00 95 1013.5
20260502230905 8 13 8.0 19.3 0.03 0.13 0.00 95 1013.5
20260502230404 8 12 3.2 11.3 0.03 0.13 0.00 95 1013.5
20260502225904 8 15 3.2 12.9 0.05 0.13 0.13 95 1013.5
20260502225404 8 15 0.0 4.8 0.08 0.13 0.13 94 1013.6
20260502224405 8 15 1.6 4.8 0.13 0.13 0.13 94 1013.4
20260502223906 8 15 0.0 8.0 0.13 0.13 0.13 94 1013.5
20260502223405 8 15 1.6 11.3 0.13 0.13 0.13 94 1013.4
20260502222905 8 16 0.0 4.8 0.13 0.13 0.13 94 1013.4
20260502222406 8 16 0.0 3.2 0.13 0.13 0.13 94 1013.4
20260502221906 8 16 0.0 4.8 0.13 0.13 0.13 94 1013.5
20260502221405 8 16 1.6 8.0 0.10 0.10 0.10 94 1013.5
20260502220906 8 16 1.6 9.7 0.10 0.10 0.10 93 1013.5
20260502220405 8 15 1.6 11.3 0.10 0.10 0.10 93 1013.5
20260502215905 8 16 1.6 9.7 0.08 0.08 0.08 92 1013.5
20260502215405 9 16 3.2 19.3 0.05 0.05 0.05 92 1013.5
20260502214906 9 350 8.0 19.3 0.03 0.03 0.03 91 1013.5
20260502214405 9 12 3.2 9.7 0.00 0.00 0.00 90 1013.5
20260502213905 9 13 8.0 14.5 0.00 0.00 0.00 89 1013.6
20260502213404 10 9 8.0 16.1 0.00 0.00 0.00 89 1013.5
20260502212905 10 26 6.4 11.3 0.00 0.00 0.00 89 1013.5
20260502211405 10 14 8.0 19.3 0.00 0.00 0.00 89 1013.5
20260502210904 10 24 9.7 24.1 0.00 0.00 0.00 89 1013.5
20260502210404 10 5 11.3 19.3 0.00 0.00 0.00 89 1013.5
20260502205406 10 10 8.0 19.3 0.00 0.00 0.00 89 1013.5
20260502204405 10 33 3.2 11.3 0.00 0.00 0.00 89 1013.5
20260502203905 10 12 9.7 16.1 0.00 0.00 0.00 89 1013.4
20260502203405 10 25 4.8 11.3 0.00 0.00 0.00 90 1013.4
20260502202904 10 53 4.8 16.1 0.00 0.00 0.00 90 1013.3
20260502202405 10 12 6.4 16.1 0.00 0.00 0.00 90 1013.2
20260502201905 10 13 6.4 12.9 0.00 0.00 0.00 90 1013.0
20260502201405 10 9 4.8 14.5 0.00 0.00 0.00 90 1013.1
20260502200906 10 11 3.2 12.9 0.00 0.00 0.00 90 1013.1
20260502200405 10 10 3.2 9.7 0.00 0.00 0.00 90 1013.0
20260502195906 10 10 4.8 19.3 0.00 0.00 0.00 89 1013.1
20260502195404 10 5 4.8 19.3 0.00 0.00 0.00 89 1013.1
20260502194904 10 6 4.8 19.3 0.00 0.00 0.00 89 1013.0
20260502194407 10 15 8.0 14.5 0.00 0.00 0.00 89 1013.0
20260502193904 10 21 4.8 16.1 0.00 0.00 0.00 90 1012.9
20260502193404 10 29 8.0 22.5 0.00 0.00 0.00 90 1012.9
20260502192404 10 5 4.8 11.3 0.00 0.00 0.00 89 1012.7
20260502191904 10 5 4.8 14.5 0.00 0.00 0.00 89 1012.6
20260502191404 10 5 6.4 19.3 0.00 0.00 0.00 89 1012.6
20260502190905 10 4 8.0 16.1 0.00 0.00 0.00 89 1012.6
20260502190403 10 9 8.0 19.3 0.00 0.00 0.00 89 1012.6
20260502185906 10 13 4.8 14.5 0.00 0.00 0.00 89 1012.6
20260502185405 10 16 4.8 8.0 0.00 0.00 0.00 89 1012.7
20260502184905 11 15 3.2 14.5 0.00 0.00 0.00 89 1012.5
20260502184406 11 354 6.4 16.1 0.00 0.00 0.00 88 1012.6
20260502183904 11 347 6.4 19.3 0.00 0.00 0.00 88 1012.6
20260502183404 11 11 8.0 16.1 0.00 0.00 0.00 89 1012.6
20260502182404 11 5 3.2 4.8 0.00 0.00 0.00 88 1012.7
20260502181906 11 5 8.0 12.9 0.00 0.00 0.00 88 1012.8
20260502181404 11 349 4.8 12.9 0.00 0.00 0.00 89 1012.7
20260502180904 11 326 4.8 9.7 0.00 0.00 0.00 89 1012.8
20260502170404 12 223 0.0 0.0 0.00 0.00 0.00 85 1012.7
20260502163404 12 223 1.6 11.3 0.00 0.00 0.00 85 1012.7
20260502162904 12 223 0.0 4.8 0.00 0.00 0.00 85 1012.8
20260502161904 12 223 4.8 9.7 0.00 0.00 0.00 84 1012.8
20260502161404 12 223 3.2 8.0 0.00 0.00 0.00 85 1012.8
20260502160905 12 223 3.2 8.0 0.00 0.00 0.00 85 1012.8
20260502160404 12 223 6.4 11.3 0.00 0.00 0.00 84 1012.7
20260502151905 12 224 8.0 11.3 0.00 0.00 0.00 84 1013.0
20260502151406 12 224 3.2 12.9 0.00 0.00 0.00 84 1013.0
20260502150905 13 225 6.4 11.3 0.00 0.00 0.00 81 1012.9
20260502150406 13 225 8.0 11.3 0.00 0.00 0.00 81 1012.9
20260502130405 13 217 3.2 8.0 0.00 0.00 0.00 83 1013.4
20260502123404 13 212 6.4 11.3 0.00 0.00 0.00 82 1013.4
20260502122904 13 212 6.4 11.3 0.00 0.00 0.00 83 1013.5
20260502122405 13 212 8.0 11.3 0.00 0.00 0.00 83 1013.5
20260502121904 13 212 8.0 11.3 0.00 0.00 0.00 83 1013.5
20260502121404 13 212 8.0 11.3 0.00 0.00 0.00 83 1013.5
20260502120904 13 212 4.8 9.7 0.00 0.00 0.00 83 1013.5
20260502115904 13 211 1.6 9.7 0.00 0.00 0.00 86 1013.5
20260502115405 13 211 1.6 8.0 0.00 0.00 0.00 85 1013.5
20260502114905 13 211 1.6 4.8 0.00 0.00 0.00 87 1013.7
20260502113905 12 211 1.6 9.7 0.00 0.00 0.00 89 1013.7
20260502112905 12 211 3.2 12.9 0.00 0.00 0.00 89 1013.7
20260502112404 12 211 6.4 12.9 0.00 0.00 0.00 89 1013.8
20260502111404 12 211 8.0 12.9 0.00 0.00 0.00 89 1013.8
20260502110905 12 211 8.0 11.3 0.00 0.00 0.00 90 1013.8
20260502104906 11 211 4.8 11.3 0.00 0.00 0.00 90 1013.8
20260502104404 11 211 6.4 12.9 0.00 0.00 0.00 89 1013.7
20260502103904 11 211 9.7 16.1 0.00 0.00 0.00 87 1013.8
20260502103405 12 211 8.0 16.1 0.00 0.00 0.00 85 1013.7
20260502102905 13 217 3.2 16.1 0.00 0.00 0.00 83 1013.7
20260502102405 14 250 3.2 11.3 0.00 0.00 0.00 82 1013.6
20260502101904 14 232 3.2 11.3 0.00 0.00 0.00 82 1013.6
20260502101404 13 211 1.6 8.0 0.00 0.00 0.00 83 1013.6
20260502100905 14 211 3.2 9.7 0.00 0.00 0.00 81 1013.5
20260502100404 13 211 1.6 9.7 0.00 0.00 0.00 84 1013.5
20260502091404 13 216 6.4 12.9 0.00 0.00 0.00 87 1013.5
20260502090905 12 182 1.6 4.8 0.00 0.00 0.00 88 1013.4
20260502090404 12 182 0.0 4.8 0.00 0.03 0.00 88 1013.5
20260502071405 10 164 1.6 3.2 0.00 0.05 0.00 93 1013.6
20260502070905 10 164 1.6 4.8 0.00 0.05 0.00 93 1013.7
20260502065404 10 164 0.0 0.0 0.00 0.05 0.00 93 1013.6
20260502064905 10 164 0.0 3.2 0.00 0.05 0.00 93 1013.7
20260502064404 10 164 3.2 8.0 0.00 0.05 0.00 93 1013.6
20260502063904 10 164 0.0 4.8 0.00 0.05 0.00 93 1013.7
20260502063405 10 186 1.6 4.8 0.00 0.05 0.00 93 1013.8
20260502061905 10 193 3.2 4.8 0.00 0.05 0.00 93 1013.6
20260502061404 10 193 3.2 4.8 0.00 0.05 0.00 93 1013.5
20260502060905 10 193 0.0 3.2 0.00 0.05 0.00 93 1013.5
20260502060405 10 193 0.0 0.0 0.00 0.05 0.00 93 1013.4
20260502055905 10 193 0.0 0.0 0.00 0.05 0.00 92 1013.4
20260502055406 10 193 0.0 0.0 0.00 0.05 0.00 93 1013.4
20260502054905 10 193 0.0 0.0 0.00 0.05 0.00 93 1013.4
20260502054406 10 193 0.0 0.0 0.00 0.05 0.00 93 1013.4
20260502053905 10 193 0.0 1.6 0.00 0.05 0.00 93 1013.3
20260502053405 10 193 0.0 0.0 0.00 0.05 0.00 93 1013.3
20260502052906 10 193 0.0 0.0 0.00 0.05 0.00 93 1013.4
20260502052405 10 193 0.0 1.6 0.00 0.05 0.00 93 1013.5
20260502051906 10 193 0.0 0.0 0.00 0.05 0.00 92 1013.5
20260502051404 10 193 0.0 0.0 0.00 0.05 0.00 92 1013.5
20260502050404 10 193 0.0 0.0 0.00 0.05 0.00 92 1013.4
20260502045904 10 193 0.0 1.6 0.00 0.05 0.00 92 1013.4
20260502045404 10 193 0.0 3.2 0.00 0.05 0.00 92 1013.4
20260502044406 10 193 0.0 1.6 0.00 0.05 0.00 92 1013.4
20260502043906 10 193 0.0 4.8 0.00 0.05 0.00 92 1013.4
20260502043404 10 193 3.2 4.8 0.00 0.05 0.00 92 1013.4
20260502042404 10 193 0.0 4.8 0.00 0.05 0.00 91 1013.4
20260502041906 10 193 0.0 0.0 0.00 0.05 0.00 92 1013.5
20260502041406 10 193 0.0 1.6 0.00 0.05 0.00 92 1013.3
20260502040405 10 213 0.0 0.0 0.00 0.05 0.00 92 1013.4
20260502035405 11 213 0.0 0.0 0.00 0.05 0.00 91 1013.5
20260502034904 11 213 0.0 0.0 0.00 0.05 0.00 91 1013.5
20260502034405 11 213 0.0 0.0 0.00 0.05 0.00 91 1013.5
20260502033905 11 213 0.0 0.0 0.00 0.05 0.00 91 1013.5
20260502033404 11 213 1.6 4.8 0.00 0.05 0.00 91 1013.5
20260502032904 11 213 0.0 4.8 0.00 0.05 0.00 91 1013.5
20260502032405 11 213 0.0 3.2 0.00 0.05 0.00 91 1013.5
20260502031405 11 213 0.0 3.2 0.00 0.05 0.00 91 1013.6
20260502030905 11 213 0.0 0.0 0.00 0.05 0.00 91 1013.5
20260502025905 11 213 0.0 0.0 0.00 0.05 0.00 91 1013.7
20260502024905 11 213 0.0 0.0 0.00 0.05 0.00 90 1013.7
20260502023905 11 213 1.6 4.8 0.00 0.05 0.00 90 1013.8
20260502022905 11 213 0.0 0.0 0.00 0.05 0.00 89 1013.8
20260502022406 11 213 0.0 0.0 0.00 0.05 0.00 89 1013.9
20260502021905 11 213 0.0 0.0 0.00 0.05 0.00 89 1013.8
20260502021405 11 213 0.0 0.0 0.00 0.05 0.00 89 1013.9
20260502020905 11 213 0.0 4.8 0.00 0.05 0.00 89 1013.9
20260502020405 11 213 0.0 4.8 0.00 0.05 0.00 89 1013.8
20260502015405 11 213 1.6 8.0 0.00 0.05 0.00 89 1014.0
20260502014905 11 213 3.2 8.0 0.00 0.05 0.00 89 1014.1
20260502014405 11 213 0.0 0.0 0.00 0.05 0.00 89 1014.0
20260502013904 11 213 0.0 0.0 0.00 0.05 0.00 89 1014.0
20260502013406 11 213 0.0 0.0 0.00 0.05 0.00 89 1014.2
20260502012905 11 213 0.0 0.0 0.00 0.05 0.00 89 1014.2
20260502012404 11 213 0.0 0.0 0.00 0.05 0.00 89 1014.2
20260502011904 11 213 0.0 0.0 0.00 0.05 0.00 89 1014.3
20260502011406 11 213 0.0 0.0 0.00 0.05 0.00 89 1014.3
20260502010905 11 213 0.0 0.0 0.00 0.05 0.00 89 1014.4
20260502010405 11 213 0.0 0.0 0.00 0.05 0.00 88 1014.6